WHISKEYTOWN DAM (USBR) (WHI)

Elevation: 1210' · SACRAMENTO R basin · Operator: US Bureau of Reclamation

Provisional data, subject to change.
Query executed Tuesday at 4:38:04   clock

Select a sensor type for a plot of data.
Note: Reservoir Flows are daily averages.

Earlier

Date RES ELE    STORAGE    RES CHG    OUTFLOW    INFLOW    EVAP    RIV REL    PPT INC    RAIN    SPILL    DIS PWR   
 FEET   AF   AF   CFS   CFS   CFS   CFS   INCHES   INCHES   CFS   CFS  
09/01/2014 1208.72 237005 731 191 590 30 177 0.00 31.38 0 14
09/02/2014 1208.75 237101 96 191 269 30 177 0.00 31.38 0 14
09/03/2014 1208.76 237132 31 191 227 20 177 0.00 31.38 0 14
09/04/2014 1208.67 236846 -286 191 77 30 177 0.00 31.38 0 14
09/05/2014 1208.66 236814 -32 193 208 31 177 0.00 31.38 0 16
09/06/2014 1208.65 236783 -31 195 194 15 177 0.00 31.38 0 18
09/07/2014 1208.54 236433 -350 191 48 33 177 0.00 31.38 0 14
09/08/2014 1208.62 236687 254 216 350 6 177 0.00 31.38 0 39
09/09/2014 1208.67 236846 159 209 324 35 177 0.00 31.38 0 32
09/10/2014 1208.81 237291 445 207 447 16 186 0.00 31.38 0 21
09/11/2014 1208.85 237418 127 192 287 31 177 0.00 31.38 0 15
09/12/2014 1209.01 237927 509 191 453 5 177 0.00 31.38 0 14
09/13/2014 1209.18 238471 544 329 627 24 177 0.00 31.38 0 152
09/14/2014 1209.12 238279 -192 191 111 17 177 0.00 31.38 0 14
09/15/2014 1209.12 238279 0 191 207 16 177 0.00 31.38 0 14
09/16/2014 1209.09 238183 -96 191 171 28 177 0.00 31.38 0 14
09/17/2014 1209.08 238151 -32 191 192 17 177 0.00 31.38 0 14
09/18/2014 1208.96 237768 -383 375 183 1 177 0.03 31.41 0 198
09/19/2014 1208.75 237101 -667 403 72 5 178 0.07 31.48 0 225
09/20/2014 1208.72 237005 -96 213 177 12 178 0.00 31.48 0 35
09/21/2014 1208.72 237005 0 192 204 12 178 0.00 31.48 0 14
09/22/2014 1208.85 237418 413 192 431 31 178 0.00 31.48 0 14
09/23/2014 1208.83 237355 -63 200 179 11 178 0.00 31.48 0 22
09/24/2014 1209.38 239111 1756 192 1090 13 178 0.00 31.48 0 14
09/25/2014 1209.22 238599 -512 759 506 5 178 1.78 33.26 0 581
09/26/2014 1208.93 237673 -926 1087 622 2 178 0.70 33.96 0 909
09/27/2014 1208.90 237577 -96 706 670 12 178 0.00 33.96 0 528
09/28/2014 1208.64 236751 -826 665 261 12 178 0.00 33.96 0 487
09/29/2014 1208.64 236751 -- 710 724 14 178 0.00 -- 0 532
09/30/2014 -- -- -- -- -- -- -- -- -- -- --

Later | Latest

Warning! This data is preliminary and subject to revision.

Download Data Now Download Data Now | Show WHI Map | Plot WHI Data | 1 Month WHI Data | Real-Time WHI Data | WHI Info